Weather History for KCGE - April, 2014

Change the Weather History Date:

Tuesday, April 22, 2014

  Actual Average (KESN) Record (KESN)
Temperature  
Mean Temperature 60 °F -  
Max Temperature 77 °F 72 °F 84 °F (1973)
Min Temperature 44 °F 51 °F 33 °F (2013)
Degree Days  
Heating Degree Days 4    
Growing Degree Days 10 (Base 50)    
Moisture  
Dew Point 49 °F    
Average Humidity 69    
Maximum Humidity 94    
Minimum Humidity 38    
Precipitation  
Precipitation 0.00 in - - ()
Sea Level Pressure  
Sea Level Pressure 29.71 in    
Wind  
Wind Speed 4 mph (South)    
Max Wind Speed 14 mph    
Max Gust Speed 16 mph    
Visibility 10 miles    
Events      
Averages and records for this station are not official NWS values.
T = Trace of Precipitation, MM = Missing Value Source: NWS Daily Summary

Daily Weather History Graph

Daily Weather History Graph

Search for Another Location

Airport or City:

Trip Planner

Search our weather history database for the weather conditions in past years. The results will help you decide how hot, cold, wet, or windy it might be!

Date:

Astronomy

Apr. 22, 2014 Rise Set
Actual Time 6:18 AM EDT 7:47 PM EDT
Civil Twilight 5:50 AM EDT 8:15 PM EDT
Nautical Twilight 5:17 AM EDT 8:48 PM EDT
Astronomical Twilight 4:41 AM EDT 9:24 PM EDT
Moon 2:00 AM EDT (4/22) 12:51 PM EDT (4/22)
Length of Visible Light 14h 24m
Length of Day
13h 29m
Last Quarter, 46% of the Moon is Illuminated
Apr 22
Last Quarter
Apr 29
New
May 6
First Quarter
May 14
Full
May 21
Last Quarter

Hourly Weather History & Observations

Time (EDT) Temp. Windchill Dew Point Humidity Pressure Visibility Wind Dir Wind Speed Gust Speed Precip Events Conditions
12:07 AM 51.8 °F - 46.4 °F 82% 29.91 in 10.0 mi SSE 4.6 mph - N/A   Clear
12:27 AM 51.8 °F - 46.4 °F 82% 29.90 in 10.0 mi Calm Calm - N/A   Clear
12:47 AM 51.8 °F - 46.4 °F 82% 29.90 in 10.0 mi Calm Calm - N/A   Clear
1:07 AM 51.8 °F - 46.4 °F 82% 29.89 in 10.0 mi SE 4.6 mph - N/A   Clear
1:27 AM 48.2 °F - 44.6 °F 87% 29.88 in 10.0 mi SSE 3.5 mph - N/A   Clear
2:07 AM 48.2 °F - 44.6 °F 87% 29.87 in 10.0 mi SE 3.5 mph - N/A   Clear
2:27 AM 46.4 °F - 44.6 °F 93% 29.86 in 10.0 mi Calm Calm - N/A   Clear
2:47 AM 48.2 °F - 44.6 °F 87% 29.85 in 10.0 mi Calm Calm - N/A   Clear
3:07 AM 46.4 °F - 42.8 °F 87% 29.84 in 10.0 mi Calm Calm - N/A   Clear
3:27 AM 46.4 °F - 44.6 °F 93% 29.84 in 10.0 mi Calm Calm - N/A   Clear
4:08 AM 44.6 °F 43.1 °F 42.8 °F 93% 29.81 in 10.0 mi SE 3.5 mph - N/A   Clear
4:28 AM 44.6 °F 43.1 °F 42.8 °F 93% 29.81 in 10.0 mi SSE 3.5 mph - N/A   Clear
4:48 AM 44.6 °F 43.1 °F 42.8 °F 93% 29.80 in 7.0 mi SSE 3.5 mph - N/A   Clear
5:08 AM 46.4 °F 45.2 °F 42.8 °F 87% 29.80 in 10.0 mi SSE 3.5 mph - N/A   Clear
5:28 AM 46.4 °F - 42.8 °F 87% 29.79 in 10.0 mi Calm Calm - N/A   Clear
5:48 AM 46.4 °F 45.2 °F 44.6 °F 93% 29.79 in 10.0 mi SE 3.5 mph - N/A   Clear
6:08 AM 46.4 °F - 44.6 °F 93% 29.79 in 7.0 mi Calm Calm - N/A   Clear
6:28 AM 46.4 °F 44.3 °F 42.8 °F 87% 29.78 in 7.0 mi SSE 4.6 mph - N/A   Clear
6:48 AM 48.2 °F - 46.4 °F 93% 29.78 in 7.0 mi SSE 3.5 mph - N/A   Clear
7:08 AM 51.8 °F - 48.2 °F 88% 29.78 in 10.0 mi SSE 3.5 mph - N/A   Clear
7:28 AM 51.8 °F - 50.0 °F 94% 29.78 in 10.0 mi South 3.5 mph - N/A   Clear
7:48 AM 53.6 °F - 50.0 °F 88% 29.77 in 10.0 mi South 4.6 mph - N/A   Clear
8:08 AM 55.4 °F - 50.0 °F 82% 29.76 in 10.0 mi South 9.2 mph - N/A   Clear
8:28 AM 57.2 °F - 50.0 °F 77% 29.76 in 10.0 mi South 8.1 mph - N/A   Clear
8:48 AM 59.0 °F - 48.2 °F 67% 29.75 in 10.0 mi South 10.4 mph - N/A   Clear
9:08 AM 60.8 °F - 48.2 °F 63% 29.74 in 10.0 mi South 8.1 mph - N/A   Clear
9:28 AM 62.6 °F - 46.4 °F 55% 29.74 in 10.0 mi South 6.9 mph - N/A   Clear
9:48 AM 62.6 °F - 44.6 °F 52% 29.74 in 10.0 mi South 11.5 mph 16.1 mph N/A   Clear
10:08 AM 62.6 °F - 44.6 °F 52% 29.72 in 10.0 mi South 13.8 mph - N/A   Clear
10:28 AM 64.4 °F - 44.6 °F 49% 29.71 in 10.0 mi SSE 9.2 mph - N/A   Clear
10:48 AM 66.2 °F - 44.6 °F 46% 29.71 in 10.0 mi South 9.2 mph 16.1 mph N/A   Clear
11:08 AM 68.0 °F - 46.4 °F 46% 29.70 in 10.0 mi South 6.9 mph - N/A   Clear
11:28 AM 69.8 °F - 50.0 °F 49% 29.69 in 10.0 mi South 6.9 mph - N/A   Clear
12:08 PM 71.6 °F - 51.8 °F 50% 29.67 in 10.0 mi SE 11.5 mph 16.1 mph N/A   Clear
12:28 PM 71.6 °F - 50.0 °F 46% 29.66 in 10.0 mi South 9.2 mph - N/A   Clear
1:49 PM 71.6 °F - 46.4 °F 41% 29.64 in 10.0 mi SSW 3.5 mph - N/A   Clear
2:09 PM 73.4 °F - 46.4 °F 38% 29.63 in 10.0 mi South 5.8 mph - N/A   Clear
2:49 PM 77.0 °F - 50.0 °F 39% 29.63 in 10.0 mi SW 3.5 mph - N/A   Clear
3:09 PM 75.2 °F - 50.0 °F 41% 29.62 in 10.0 mi SSW 5.8 mph - N/A   Clear
3:29 PM 77.0 °F - 50.0 °F 39% 29.62 in 10.0 mi SW 4.6 mph - N/A   Clear
3:49 PM 77.0 °F - 50.0 °F 39% 29.61 in 10.0 mi West 3.5 mph - N/A   Clear
4:09 PM 71.6 °F - 46.4 °F 41% 29.61 in 10.0 mi NNW 12.7 mph - N/A   Clear
4:29 PM 71.6 °F - 48.2 °F 43% 29.62 in 10.0 mi NW 8.1 mph - N/A   Clear
4:49 PM 69.8 °F - 50.0 °F 49% 29.62 in 10.0 mi WNW 5.8 mph - N/A   Scattered Clouds
5:09 PM 69.8 °F - 51.8 °F 53% 29.62 in 10.0 mi WNW 3.5 mph - N/A   Scattered Clouds
5:29 PM 69.8 °F - 51.8 °F 53% 29.61 in 10.0 mi NNW 5.8 mph - N/A   Scattered Clouds
5:49 PM 69.8 °F - 53.6 °F 56% 29.60 in 10.0 mi Calm Calm - N/A   Clear
6:09 PM 69.8 °F - 51.8 °F 53% 29.59 in 10.0 mi Calm Calm - N/A   Clear
6:29 PM 68.0 °F - 53.6 °F 60% 29.59 in 10.0 mi Calm Calm - N/A   Scattered Clouds
6:49 PM 66.2 °F - 53.6 °F 64% 29.59 in 10.0 mi NW 3.5 mph - N/A   Clear
7:09 PM 66.2 °F - 51.8 °F 60% 29.59 in 10.0 mi Calm Calm - N/A   Clear
7:29 PM 64.4 °F - 51.8 °F 64% 29.59 in 10.0 mi Calm Calm - N/A   Clear
7:49 PM 62.6 °F - 53.6 °F 72% 29.59 in 10.0 mi Calm Calm - N/A   Clear
8:09 PM 62.6 °F - 53.6 °F 72% 29.61 in 10.0 mi NNW 5.8 mph - N/A   Scattered Clouds
8:29 PM 64.4 °F - 53.6 °F 68% 29.60 in 10.0 mi Calm Calm - N/A   Scattered Clouds
8:49 PM 62.6 °F - 53.6 °F 72% 29.61 in 10.0 mi Calm Calm - N/A   Clear
9:10 PM 60.8 °F - 53.6 °F 77% 29.61 in 10.0 mi Calm Calm - N/A   Scattered Clouds
9:30 PM 59.0 °F - 53.6 °F 82% 29.61 in 10.0 mi Calm Calm - N/A   Clear
9:50 PM 59.0 °F - 53.6 °F 82% 29.61 in 10.0 mi Calm Calm - N/A   Clear
10:10 PM 59.0 °F - 53.6 °F 82% 29.61 in 10.0 mi Calm Calm - N/A   Clear
10:30 PM 59.0 °F - 53.6 °F 82% 29.61 in 10.0 mi Calm Calm - N/A   Scattered Clouds
10:50 PM 59.0 °F - 53.6 °F 82% 29.62 in 10.0 mi North 3.5 mph - N/A   Scattered Clouds
11:10 PM 59.0 °F - 53.6 °F 82% 29.61 in 10.0 mi North 8.1 mph - N/A   Clear
11:50 PM 59.0 °F - 51.8 °F 77% 29.62 in 10.0 mi Calm Calm - N/A   Clear